Find Starlink 32600

NORAD ID: 62178 Int'l Des: 2024-225 Owner: SPXS Country: US Constellation: starlink operational
LEOCIRCULAR

Live Position

Loading 3D Globe...

About Starlink 32600

Description loading...

Upcoming Passes

Passes for default location (London). Set your location on the main map for personalized predictions.

Altitude History

Loading altitude history...

Two-Line Element Set

1 62178U 24225R 26125.77959057 .00021485 00000-0 18006-2 0 9991
2 62178 70.0059 10.6214 0002129 260.5315 99.5604 14.98379561 78671
Epoch: May 5, 2026 • Age: 8 hours

Current Status

Altitude 595.4 km
Velocity 7.56 km/s
Sub-Earth Point -68.20°S, 3.52°W
Launch Date Nov 30, 2024
Age 1.4 years
Type internet

Technical Details

Classification Payload
Mass 730.00 kg
Dry Mass 700.00 kg
Total Mass 730.00 kg
Length 0.30 m
Diameter 4.10 m
Span 29.00 m
Shape Box + pan
Manufacturer SPXS
Bus Type Starlink V2M
Phase Status In Orbit
Owner/State SPXS/US

Most Searched